Location: Byszew
(52.1813°N, 19.2693°E)
Time: 13:23:15
(UTC+00:00)

FENGYUN 1C DEB - Visible Passes

Search period start: 24 September 2021 00:00
Search period end: 04 October 2021 00:00
Orbit: 846 x 1036 km, 99.5° (Epoch: 23 September)

Date Brightness Start Highest point End Pass type
(mag) Time Alt. Az. Time Alt. Az. Time Alt. Az.
24 Sep ? 02:08:38 10° NNE 02:14:19 57° ESE 02:19:26 12° S visible
24 Sep ? 03:51:33 10° N 03:56:31 31° WNW 04:01:19 10° WSW visible
25 Sep ? 00:42:51 10° NE 00:45:29 13° E 00:48:05 10° ESE visible
25 Sep ? 02:23:21 10° NNE 02:29:06 73° ESE 02:34:16 12° S visible
26 Sep ? 00:56:51 10° NE 01:00:29 17° E 01:04:02 10° SE visible
26 Sep ? 02:38:06 10° NNE 02:43:52 90° W 02:49:05 12° SSW visible
27 Sep ? 01:11:08 10° NE 01:15:27 22° E 01:19:38 10° SE visible
27 Sep ? 02:52:52 10° NNE 02:58:35 72° WNW 03:03:56 11° SSW visible
28 Sep ? 01:25:34 10° NE 01:30:22 28° E 01:34:50 11° SSE visible
28 Sep ? 03:07:41 10° N 03:13:16 58° WNW 03:18:38 10° SW visible
29 Sep ? 01:40:06 10° NNE 01:45:15 35° E 01:49:40 13° SSE visible
29 Sep ? 03:22:32 10° N 03:27:55 46° WNW 03:33:08 10° SW visible
30 Sep ? 01:54:43 10° NNE 02:00:06 44° E 02:04:30 14° SSE visible
30 Sep ? 03:37:25 10° N 03:42:33 37° WNW 03:47:32 10° SW visible
01 Oct ? 02:09:22 10° NNE 02:14:55 57° ESE 02:19:19 15° S visible
01 Oct ? 03:52:18 10° N 03:57:09 30° WNW 04:01:51 10° WSW visible
02 Oct ? 00:43:39 10° ENE 00:46:06 13° E 00:48:31 10° ESE visible
02 Oct ? 02:24:05 10° NNE 02:29:42 72° ESE 02:34:09 16° S visible
02 Oct ? 04:07:15 10° N 04:11:43 25° NW 04:16:04 10° WSW visible
03 Oct ? 00:57:35 10° NE 01:01:06 17° E 01:04:32 10° SE visible
03 Oct ? 02:38:49 10° NNE 02:44:27 90° WNW 02:48:58 16° SSW visible
